This is the latest recevied weather packets stored in our database for station/object PD2BVG. If no packets are shown the sender has not sent any weather packets the latest 1 day(s).
| Time | Temp. | Humidity | Pressure | Rain* | Wind** | Luminosity | Snow |
|---|---|---|---|---|---|---|---|
| 1777991776 | 14.44° C | 70% | 1010.8 hPa | 0 mm | 3.58 m/s, 25° | 236 W/m² | - |
| 1777991714 | 14.44° C | 70% | 1010.8 hPa | 0 mm | 3.13 m/s, 341° | 241 W/m² | - |
| 1777991655 | 14.44° C | 70% | 1010.8 hPa | 0 mm | 3.58 m/s, 345° | 248 W/m² | - |
| 1777991595 | 14.44° C | 70% | 1010.8 hPa | 0 mm | 4.02 m/s, 337° | 260 W/m² | - |
| 1777991534 | 14.44° C | 69% | 1010.8 hPa | 0 mm | 4.02 m/s, 10° | 271 W/m² | - |
| 1777991473 | 14.44° C | 69% | 1010.9 hPa | 0 mm | 4.47 m/s, 357° | 292 W/m² | - |
| 1777991413 | 14.44° C | 70% | 1010.9 hPa | 0 mm | 4.02 m/s, 329° | 292 W/m² | - |
| 1777991354 | 14.44° C | 70% | 1010.8 hPa | 0 mm | 3.58 m/s, 327° | 287 W/m² | - |
| 1777991293 | 14.44° C | 69% | 1010.7 hPa | 0 mm | 4.47 m/s, 343° | 311 W/m² | - |
| 1777991231 | 14.44° C | 70% | 1010.9 hPa | 0 mm | 4.47 m/s, 312° | 329 W/m² | - |
| 1777991171 | 14.44° C | 70% | 1010.8 hPa | 0 mm | 3.58 m/s, 0° | 338 W/m² | - |
| 1777991110 | 14.44° C | 70% | 1010.9 hPa | 0 mm | 3.13 m/s, 6° | 343 W/m² | - |
| 1777991050 | 14.44° C | 69% | 1010.8 hPa | 0 mm | 3.58 m/s, 0° | 350 W/m² | - |
| 1777990990 | 14.44° C | 69% | 1010.9 hPa | 0 mm | 4.47 m/s, 323° | 350 W/m² | - |
| 1777990930 | 14.44° C | 68% | 1010.8 hPa | 0 mm | 4.92 m/s, 0° | 357 W/m² | - |
| 1777990869 | 14.44° C | 69% | 1010.8 hPa | 0 mm | 4.92 m/s, 355° | 357 W/m² | - |
| 1777990809 | 14.44° C | 70% | 1010.8 hPa | 0 mm | 4.47 m/s, 329° | 361 W/m² | - |
| 1777990747 | 14.44° C | 71% | 1010.7 hPa | 0 mm | 4.47 m/s, 351° | 424 W/m² | - |
| 1777990688 | 14.44° C | 71% | 1010.9 hPa | 0 mm | 4.47 m/s, 331° | 482 W/m² | - |
| 1777990628 | 14.44° C | 72% | 1010.8 hPa | 0 mm | 4.02 m/s, 347° | 533 W/m² | - |
| 1777990567 | 14.44° C | 71% | 1010.8 hPa | 0 mm | 3.58 m/s, 7° | 533 W/m² | - |
| 1777990509 | 14.44° C | 72% | 1010.8 hPa | 0 mm | 3.58 m/s, 351° | 519 W/m² | - |
| 1777990446 | 14.44° C | 71% | 1010.8 hPa | 0 mm | 4.02 m/s, 333° | 498 W/m² | - |
| 1777990386 | 14.44° C | 71% | 1010.8 hPa | 0 mm | 4.47 m/s, 309° | 456 W/m² | - |
| 1777990326 | 14.44° C | 71% | 1010.8 hPa | 0 mm | 4.92 m/s, 354° | 385 W/m² | - |
* Rain latest hour (hover to see other rain measurements)
** Current wind speed in m/s (hover to see current wind gust speed)